Regional Weather Roundup
Issued by NWS

Home | Current Version | Previous Version | Graphics & Text | Print | Product List | Glossary On
Versions: 1 2 3 4 5 6 7 8 9 10 11 12 13 14 15 16 17 18 19 20 21 22 23 24 25 26 27 28 29 30 31 32 33 34 35 36 37 38 39 40 41 42 43 44 45 46 47 48 49 50
000
ASUS45 KTFX 041810
RWRMT
MONTANA REGIONAL WEATHER ROUNDUP
NATIONAL WEATHER SERVICE GREAT FALLS MT
1200 PM MDT WED MAY 04 2016

NOTE: "FAIR" INDICATES FEW OR NO CLOUDS BELOW 12000 FEET WITH NO
SIGNIFICANT WEATHER AND/OR OBSTRUCTIONS TO VISIBILITY.

MTZ001>007-043-041900-
WEST OF THE DIVIDE

CITY           SKY/WX    TMP DP  RH WIND       PRES   REMARKS
KALISPELL      PTSUNNY   68  44  42 S5        29.98F
MISSOULA       PTSUNNY   65  42  43 CALM      30.03F
BUTTE          MOSUNNY   69  24  18 S17G24    30.11S
MULLAN PASS    PTSUNNY   59  36  42 CALM      30.11S
ANACONDA         N/A     70  23  17 SW12      30.08S
DEER LODGE       N/A     72  32  23 SE10G18   30.06F
EUREKA           N/A     68  45  42 CALM      29.96F
HAMILTON         N/A     66  37  34 CALM      30.02F
LIBBY            N/A     64  43  45 CALM      29.98F
PLAINS           N/A     69  48  46 CALM      29.99F
$$

MTZ008-052>055-041900-
SOUTHWEST MONTANA

CITY           SKY/WX    TMP DP  RH WIND       PRES   REMARKS
BOZEMAN        SUNNY     74  33  22 CALM      30.07F
DILLON         SUNNY     68  32  26 W10       30.10F
ENNIS          MOSUNNY   72  28  20 SW24G32   30.16F
TWIN BRIDGES     N/A     69  33  26 SE6       30.08F
$$

MTZ009-010-012-014-046-048-049-054-041900-
EAST SLOPES AND CENTRAL MONTANA

CITY           SKY/WX    TMP DP  RH WIND       PRES   REMARKS
CUT BANK       SUNNY     76  38  25 VRB7      29.95F
GREAT FALLS    SUNNY     78  34  20 SW17      29.97F
MALMSTROM AFB  SUNNY     78  39  25 SW16G25   29.96F
HELENA         SUNNY     71  36  27 NE5       30.02F
CHOTEAU          N/A     77  34  20 VRB5G12   29.97S
CONRAD           N/A     76  43  30 W1        29.98F
$$

MTZ011-013-016-021-045-047-050-051-041900-
NORTH CENTRAL MONTANA

CITY           SKY/WX    TMP DP  RH WIND       PRES   REMARKS
HAVRE          SUNNY     74  45  35 SW8       29.94F
LEWISTOWN      SUNNY     79  27  14 VRB5      30.01F
N BAR RANCH      N/A     79  30  17 N9        30.04F
$$

MTZ017>020-022>027-061-062-041900-
NORTHEAST MONTANA

CITY           SKY/WX    TMP DP  RH WIND       PRES   REMARKS
GLASGOW        SUNNY     80  43  26 S17       29.95F
JORDAN           N/A     79  43  27 S14       29.97F
SIDNEY         SUNNY     79  43  27 S10G18    30.01F
WOLF POINT     SUNNY     83  43  24 S13G20    29.96F
POPLAR           N/A     81  39  22 S12G17    29.97F
$$

MTZ028>42-056>058-041900-
SOUTHCENTRAL AND SOUTHEAST MONTANA

CITY           SKY/WX    TMP DP  RH WIND       PRES   REMARKS
BAKER          SUNNY     77  36  22 S16G23    30.07F
BILLINGS       MOSUNNY   78  32  18 SW16      30.04F
LIVINGSTON     SUNNY     75  29  18 SW16G24   30.06F
MILES CITY     SUNNY     81  40  23 S12G21    30.00F
FORSYTH          N/A     79  41  25 CALM      30.00F
LAUREL           N/A     76  32  20 S6        30.02F
ROUNDUP          N/A     77  36  22 S12       29.93S
$$

REGIONAL REPORTS...DAKOTAS

CITY           SKY/WX    TMP DP  RH WIND       PRES   REMARKS
WILLISTON      SUNNY     81  40  23 SW13      30.00F
MINOT          SUNNY     81  35  19 SW6       30.00F
DICKINSON      SUNNY     77  39  25 SW9       30.04F
BEACH            N/A     77  36  22 S15G22    30.07F
CROSBY           N/A     82  36  18 SW15      29.98F
TIOGA            N/A     81  36  19 SW16G22   30.04F
WATFORD CITY     N/A     81  37  21 SW9       30.02F
BISMARCK       SUNNY     72  35  25 VRB7      30.07F
GRAND FORKS    MOSUNNY   62  35  36 N3        30.07F
FARGO          SUNNY     64  33  31 N8G18     30.06F
BUFFALO SD       N/A     76  38  25 S10G20    30.03F
RAPID CITY     SUNNY     73  40  30 SW9       30.13F
$$

REGIONAL REPORTS...WYOMING/IDAHO/WASHINGTON

CITY           SKY/WX    TMP DP  RH WIND       PRES   REMARKS
GILLETTE       SUNNY     73  40  30 S14       30.10F
SHERIDAN       SUNNY     77  42  28 CALM      30.07F
BUFFALO WY     SUNNY     73  31  21 SE9       30.13F
CODY           SUNNY     73  27  17 SW15      30.10F
YELLOWSTONE LA   N/A     52  24  33 CALM      30.31S
IDAHO FALLS    MOSUNNY   70  35  27 VRB3      30.14F
SALMON         CLOUDY    63  36  36 N5        30.07F
BOISE          PTSUNNY   76  38  25 N3        29.95F
SPOKANE        PTSUNNY   68  45  43 CALM      29.98F
$$

REGIONAL REPORTS...ALBERTA

CITY           SKY/WX    TMP DP  RH WIND       PRES   REMARKS
EDMONTON       MOSUNNY   77  37  24 W7        29.77F
LETHBRIDGE     PTSUNNY   79  32  18 VRB2      29.89F
MEDICINE HAT   MOSUNNY   81  41  24 SW7       29.88F
WATERTON GATE    N/A     72  34  25 SW15G23     N/A
CARDSTON         N/A     79  36  21 SW7         N/A
MILK RIVER       N/A     77  39  25 SW3         N/A
ONEFOUR          N/A     75  41  29 SE10        N/A
$$

REGIONAL REPORTS...SASKATCHEWAN

CITY           SKY/WX    TMP DP  RH WIND       PRES   REMARKS
SWIFT CURRENT  SUNNY     82  30  15 W14G22    29.89S
REGINA         MOSUNNY   84  34  16 SW16G30   29.89F
SASKATOON      SUNNY     84  36  17 SW20G25   29.79F
VAL MARIE        N/A     79  41  25 S15         N/A
ROCKGLEN         N/A     77  37  24 SW17G24     N/A
ASSINIBOIA       N/A     82  30  15 W15G23      N/A
$$



USA.gov is the U.S. government's official web portal to all federal, state and local government web resources and services.